DW4238 Weather Reports


time (UTC)temp
C
wind
direction
speed
KPH
gust
KPH
rain 1hr
cm
rain 24hr
cm
rain mn
cm
humidity
%
barometer
mb
20260906194627 30 139 14.5 24.1 0.00 0.00 0.00 72 1012.1
20260906194038 30 149 9.7 25.7 0.00 0.00 0.00 76 1012.1
20260906193644 30 146 14.5 25.7 0.00 0.00 0.00 78 1012.2
20260906193050 30 121 12.9 19.3 0.00 0.00 0.00 78 1012.3
20260906192602 29 157 12.9 24.1 0.00 0.00 0.00 78 1012.4
20260906191624 28 143 16.1 25.7 0.00 0.00 0.00 80 1012.4
20260906191128 28 153 19.3 27.4 0.00 0.00 0.00 80 1012.5
20260906190617 29 148 16.1 24.1 0.00 0.00 0.00 79 1012.6
20260906190050 29 149 9.7 16.1 0.00 0.00 0.00 78 1012.5
20260906185552 30 136 3.2 12.9 0.00 0.00 0.00 77 1012.6
20260906184554 30 88 6.4 14.5 0.00 0.00 0.00 76 1012.4
20260906184104 30 102 8.0 16.1 0.00 0.00 0.00 75 1012.3
20260906183626 30 81 9.7 16.1 0.00 0.00 0.00 75 1012.4
20260906183053 30 109 6.4 20.9 0.00 0.00 0.00 74 1012.5
20260906182602 30 124 11.3 22.5 0.00 0.00 0.00 72 1012.5
20260906182105 31 61 16.1 20.9 0.00 0.00 0.00 69 1012.5
20260906181532 32 83 9.7 16.1 0.00 0.00 0.00 68 1012.6
20260906181048 32 171 4.8 9.7 0.00 0.00 0.00 63 1012.5
20260906180649 32 174 8.0 11.3 0.00 0.00 0.00 63 1012.6
20260906180059 32 263 1.6 11.3 0.00 0.00 0.00 62 1012.7
20260906175603 32 284 6.4 12.9 0.00 0.00 0.00 61 1012.8
20260906174611 33 234 1.6 19.3 0.00 0.00 0.00 63 1012.8
20260906174117 32 197 6.4 20.9 0.00 0.00 0.00 66 1012.8
20260906173629 32 278 8.0 14.5 0.00 0.00 0.00 65 1012.8
20260906173057 32 238 8.0 11.3 0.00 0.00 0.00 64 1012.9
20260906172539 32 148 3.2 11.3 0.00 0.00 0.00 66 1013.0
20260906171606 32 244 1.6 16.1 0.00 0.00 0.00 69 1013.4
20260906171057 32 202 8.0 16.1 0.00 0.00 0.00 68 1013.5
20260906170058 31 229 4.8 9.7 0.00 0.00 0.00 69 1013.5
20260906165603 31 223 4.8 11.3 0.00 0.00 0.00 69 1013.4
20260906164625 31 221 1.6 9.7 0.00 0.00 0.00 71 1013.5
20260906164116 31 221 8.0 14.5 0.00 0.00 0.00 70 1013.5
20260906163117 31 200 9.7 14.5 0.00 0.00 0.00 72 1013.6
20260906162532 31 283 6.4 12.9 0.00 0.00 0.00 75 1013.7
20260906162045 30 153 1.6 9.7 0.00 0.00 0.00 75 1013.7
20260906161650 30 302 6.4 11.3 0.00 0.00 0.00 72 1013.8
20260906161140 30 292 1.6 9.7 0.00 0.00 0.00 75 1013.8
20260906160624 30 186 6.4 11.3 0.00 0.00 0.00 75 1013.8
20260906160051 30 207 6.4 12.9 0.00 0.00 0.00 76 1013.7
20260906155541 30 201 6.4 14.5 0.00 0.00 0.00 74 1013.8
20260906154602 30 194 1.6 11.3 0.00 0.00 0.00 80 1013.8
20260906154107 30 199 4.8 14.5 0.00 0.00 0.00 80 1013.8
20260906153618 30 255 3.2 14.5 0.00 0.00 0.00 81 1013.7
20260906153049 30 217 4.8 9.7 0.00 0.00 0.00 81 1013.7
20260906152554 29 207 3.2 9.7 0.00 0.00 0.00 82 1013.7
20260906151623 29 202 8.0 14.5 0.00 0.00 0.00 83 1013.8
20260906151128 28 193 9.7 14.5 0.00 0.00 0.00 84 1013.7
20260906150540 28 181 1.6 9.7 0.00 0.00 0.00 86 1013.7
20260906150147 28 182 4.8 12.9 0.00 0.00 0.00 86 1013.7
20260906145537 28 146 4.8 12.9 0.00 0.00 0.00 88 1013.7
20260906144559 28 177 4.8 9.7 0.00 0.00 0.00 90 1013.7
20260906144114 28 166 4.8 9.7 0.00 0.00 0.00 90 1013.7
20260906143536 27 169 6.4 9.7 0.00 0.00 0.00 90 1013.6
20260906143144 27 167 4.8 8.0 0.00 0.00 0.00 91 1013.7
20260906142638 27 150 3.2 8.0 0.00 0.00 0.00 91 1013.6
20260906142118 27 150 6.4 11.3 0.00 0.00 0.00 91 1013.7
20260906141546 27 136 6.4 12.9 0.00 0.00 0.00 91 1013.7
20260906141052 27 155 4.8 12.9 0.00 0.00 0.00 92 1013.6
20260906140121 27 158 8.0 12.9 0.00 0.00 0.00 92 1013.5
20260906135626 27 155 9.7 12.9 0.00 0.00 0.00 92 1013.5
20260906135116 27 180 8.0 9.7 0.00 0.00 0.00 93 1013.4
20260906134040 26 171 4.8 8.0 0.00 0.00 0.00 93 1013.3
20260906133103 26 156 4.8 11.3 0.00 0.00 0.00 93 1013.2
20260906132533 26 149 6.4 8.0 0.00 0.00 0.00 94 1013.2
20260906131555 26 134 3.2 8.0 0.00 0.00 0.00 93 1012.9
20260906131106 26 111 1.6 6.4 0.00 0.00 0.00 93 1012.9
20260906130107 26 132 3.2 4.8 0.00 0.00 0.00 93 1012.8
20260906125619 26 134 1.6 4.8 0.00 0.00 0.00 93 1012.8
20260906125124 26 137 0.0 0.0 0.00 0.00 0.00 93 1012.8
20260906124556 26 139 0.0 1.6 0.00 0.00 0.00 93 1012.8
20260906124110 25 136 0.0 0.0 0.00 0.00 0.00 93 1012.6
20260906123050 25 136 0.0 4.8 0.00 0.00 0.00 93 1012.5
20260906122554 25 136 0.0 4.8 0.00 0.00 0.00 93 1012.5
20260906121623 25 138 3.2 6.4 0.00 0.00 0.00 93 1012.4
20260906121127 26 140 0.0 4.8 0.00 0.00 0.00 93 1012.3
20260906120615 25 140 1.6 4.8 0.00 0.00 0.00 93 1012.2
20260906120035 26 142 1.6 6.4 0.00 0.00 0.00 93 1012.3
20260906115551 26 142 4.8 6.4 0.00 0.00 0.00 93 1012.3
20260906114613 26 143 3.2 6.4 0.00 0.00 0.00 93 1012.2
20260906114103 25 144 4.8 6.4 0.00 0.00 0.00 92 1012.1
20260906113603 25 148 0.0 0.0 0.00 0.00 0.00 92 1012.0
20260906113035 25 149 0.0 4.8 0.00 0.00 0.00 92 1011.8
20260906112547 25 150 0.0 8.0 0.00 0.00 0.00 92 1011.8
20260906111608 25 161 4.8 8.0 0.00 0.00 0.00 92 1011.7
20260906111058 25 175 1.6 4.8 0.00 0.00 0.00 92 1011.6
20260906110601 25 178 3.2 6.4 0.00 0.00 0.00 92 1011.5
20260906110032 25 180 3.2 6.4 0.00 0.00 0.00 92 1011.4
20260906105537 25 181 3.2 6.4 0.00 0.00 0.00 92 1011.4
20260906104606 25 205 4.8 6.4 0.00 0.00 0.00 92 1011.5
20260906104050 25 206 4.8 6.4 0.00 0.00 0.00 91 1011.6
20260906103120 26 209 0.0 4.8 0.00 0.00 0.00 91 1011.4
20260906102602 26 210 0.0 0.0 0.00 0.00 0.00 91 1011.4
20260906102114 26 211 0.0 0.0 0.00 0.00 0.00 91 1011.5
20260906101537 26 213 0.0 0.0 0.00 0.00 0.00 90 1011.4
20260906101049 26 213 0.0 0.0 0.00 0.00 0.00 91 1011.4
20260906100113 26 213 0.0 0.0 0.00 0.00 0.00 90 1011.2
20260906095625 26 214 0.0 0.0 0.00 0.00 0.00 90 1011.1
20260906095129 26 215 0.0 0.0 0.00 0.00 0.00 90 1011.1
20260906094557 26 215 0.0 0.0 0.00 0.00 0.00 90 1011.0
20260906094109 26 215 0.0 0.0 0.00 0.00 0.00 90 1011.0
20260906093614 26 215 0.0 0.0 0.00 0.00 0.00 90 1011.0
20260906093046 26 215 0.0 0.0 0.00 0.00 0.00 90 1011.0
20260906092557 26 215 0.0 0.0 0.00 0.00 0.00 89 1011.0
20260906091552 26 215 0.0 0.0 0.00 0.00 0.00 90 1011.0
20260906091104 26 215 0.0 0.0 0.00 0.00 0.00 90 1011.0
20260906090106 26 215 0.0 0.0 0.00 0.00 0.00 89 1010.9
20260906085556 26 215 0.0 0.0 0.00 0.00 0.00 89 1010.9
20260906084618 26 215 0.0 0.0 0.00 0.00 0.00 89 1011.1
20260906084110 26 215 0.0 0.0 0.00 0.00 0.00 89 1011.1
20260906083131 26 215 0.0 0.0 0.00 0.00 0.00 89 1011.1
20260906082535 26 216 0.0 0.0 0.00 0.00 0.00 89 1011.1
20260906081604 26 217 0.0 3.2 0.00 0.00 0.00 89 1011.1
20260906081045 26 218 0.0 4.8 0.00 0.00 0.00 89 1011.1
20260906080046 26 219 0.0 0.0 0.00 0.00 0.00 89 1011.2
20260906075558 26 219 0.0 1.6 0.00 0.00 0.00 89 1011.2
20260906075109 26 219 0.0 4.8 0.00 0.00 0.00 88 1011.2
20260906074533 26 219 1.6 4.8 0.00 0.00 0.00 88 1011.3
20260906074045 26 219 3.2 6.4 0.00 0.00 0.00 88 1011.3
20260906073107 26 219 0.0 0.0 0.00 0.00 0.00 88 1011.6
20260906072557 26 219 0.0 4.8 0.00 0.00 0.00 88 1011.6
20260906071621 26 218 3.2 6.4 0.00 0.00 0.00 88 1011.7
20260906071112 26 216 3.2 6.4 0.00 0.00 0.00 88 1011.7
20260906070616 26 216 1.6 6.4 0.00 0.00 0.00 88 1011.8
20260906070039 26 215 1.6 6.4 0.00 0.00 0.00 88 1011.8
20260906065550 26 198 3.2 6.4 0.00 0.00 0.00 88 1011.8
20260906065033 26 198 3.2 8.0 0.00 0.00 0.00 88 1011.8
20260906064534 26 197 4.8 8.0 0.00 0.00 0.00 88 1011.8
20260906064044 26 195 3.2 6.4 0.00 0.00 0.00 88 1011.7
20260906063534 26 194 4.8 8.0 0.00 0.00 0.00 88 1011.7
20260906063044 26 192 4.8 8.0 0.00 0.00 0.00 88 1011.8
20260906062534 26 192 4.8 8.0 0.00 0.00 0.00 88 1011.9
20260906062103 26 191 3.2 6.4 0.00 0.00 0.00 88 1011.9
20260906061542 26 171 3.2 6.4 0.00 0.00 0.00 88 1012.0
20260906061052 26 171 0.0 8.0 0.00 0.00 0.00 89 1011.9
20260906060559 26 170 6.4 8.0 0.00 0.00 0.00 89 1011.9
20260906060034 26 170 6.4 8.0 0.00 0.00 0.00 89 1011.8
20260906055544 26 169 6.4 9.7 0.00 0.00 0.00 89 1011.7
20260906055034 26 163 1.6 8.0 0.00 0.00 0.00 89 1011.6
20260906054555 26 160 3.2 9.7 0.00 0.00 0.00 89 1011.8
20260906054105 26 161 4.8 9.7 0.00 0.00 0.00 89 1011.8
20260906053554 26 163 3.2 9.7 0.00 0.00 0.00 89 1011.9
20260906053108 26 164 6.4 11.3 0.00 0.00 0.00 89 1011.8
20260906052537 26 161 8.0 11.3 0.00 0.00 0.00 89 1012.0
20260906052049 26 168 6.4 11.3 0.00 0.00 0.00 89 1012.0
20260906051609 26 145 4.8 11.3 0.00 0.00 0.00 89 1011.9
20260906051058 26 144 6.4 11.3 0.00 0.00 0.00 89 1011.8
20260906050542 26 171 6.4 14.5 0.00 0.00 0.00 89 1011.8
20260906050042 26 156 8.0 14.5 0.00 0.00 0.00 89 1011.8
20260906045141 26 168 9.7 16.1 0.00 0.00 0.00 89 1011.9
20260906044547 26 160 11.3 14.5 0.00 0.00 0.00 88 1011.8
20260906044052 26 153 9.7 14.5 0.00 0.00 0.00 88 1012.0
20260906043601 26 146 6.4 14.5 0.00 0.00 0.00 88 1012.0
20260906043033 26 144 8.0 14.5 0.00 0.00 0.00 88 1012.1
20260906042538 26 145 6.4 12.9 0.00 0.00 0.00 87 1012.1
20260906041601 26 159 3.2 9.7 0.00 0.00 0.00 87 1011.9
20260906041114 26 157 4.8 12.9 0.00 0.00 0.00 87 1011.9
20260906040626 26 157 8.0 14.5 0.00 0.00 0.00 86 1011.9
20260906040046 26 153 8.0 12.9 0.00 0.00 0.00 86 1011.9
20260906035558 26 144 6.4 12.9 0.00 0.00 0.00 85 1012.1
20260906034625 26 146 6.4 11.3 0.00 0.00 0.00 85 1011.9
20260906034034 26 145 4.8 8.0 0.00 0.00 0.00 85 1011.9
20260906033532 26 142 6.4 12.9 0.00 0.00 0.00 84 1011.8
20260906032539 26 141 4.8 8.0 0.00 0.00 0.00 84 1011.8
20260906031600 26 140 0.0 8.0 0.00 0.00 0.00 83 1011.9
20260906031050 26 141 0.0 6.4 0.00 0.00 0.00 83 1011.9
20260906030117 26 149 6.4 11.3 0.00 0.00 0.00 83 1011.8
20260906025625 26 111 6.4 11.3 0.00 0.00 0.00 82 1011.9
20260906025129 26 136 6.4 12.9 0.00 0.00 0.00 82 1011.8
20260906024556 26 140 8.0 12.9 0.00 0.00 0.00 82 1011.6
20260906024047 27 142 6.4 14.5 0.00 0.00 0.00 82 1011.6
20260906023106 27 146 4.8 12.9 0.00 0.00 0.00 82 1011.4
20260906022611 27 150 6.4 11.3 0.00 0.00 0.00 82 1011.3
20260906022124 27 143 4.8 11.3 0.00 0.00 0.00 81 1011.3
20260906021555 27 146 6.4 12.9 0.00 0.00 0.00 81 1011.3
20260906021037 27 144 6.4 12.9 0.00 0.00 0.00 81 1011.1
20260906020106 27 146 4.8 11.3 0.00 0.00 0.00 81 1010.9
20260906015550 27 134 1.6 11.3 0.00 0.00 0.00 81 1010.8
20260906014551 27 133 4.8 14.5 0.00 0.00 0.00 80 1010.7
20260906014104 27 141 9.7 14.5 0.00 0.00 0.00 80 1010.5
20260906013647 27 140 6.4 12.9 0.00 0.00 0.00 80 1010.5
20260906013054 27 143 6.4 11.3 0.00 0.00 0.00 80 1010.5
20260906012606 27 142 6.4 12.9 0.00 0.00 0.00 80 1010.4
20260906011607 28 141 6.4 16.1 0.00 0.00 0.00 79 1010.5
20260906011103 28 153 4.8 11.3 0.00 0.00 0.00 79 1010.5
20260906010103 28 138 4.8 14.5 0.00 0.00 0.00 78 1010.4
20260906005607 28 145 8.0 14.5 0.00 0.00 0.00 78 1010.5
20260906005112 28 143 6.4 14.5 0.00 0.00 0.00 77 1010.5
20260906004543 28 128 8.0 16.1 0.00 0.00 0.00 77 1010.6
20260906004048 28 101 9.7 16.1 0.00 0.00 0.00 77 1010.7
20260906003107 28 140 6.4 19.3 0.00 0.00 0.00 76 1010.7
20260906002620 28 141 12.9 19.3 0.00 0.00 0.00 76 1010.8
20260906002110 29 135 4.8 14.5 0.00 0.00 0.00 75 1010.8
20260906001535 29 103 8.0 16.1 0.00 0.00 0.00 74 1010.8
20260906001046 29 126 8.0 17.7 0.00 0.00 0.00 74 1010.9
20260906000109 30 124 12.9 22.5 0.00 0.00 0.00 72 1010.8
20260905235556 30 115 11.3 24.1 0.00 0.00 0.00 72 1010.7
20260905234618 30 136 11.3 24.1 0.00 0.00 0.00 69 1010.6
20260905234047 30 135 11.3 24.1 0.00 0.00 0.00 68 1010.7
20260905233630 31 138 14.5 29.0 0.00 0.00 0.00 67 1010.7
20260905233036 31 181 16.1 25.7 0.00 0.00 0.00 66 1010.6
20260905232541 32 94 9.7 19.3 0.00 0.00 0.00 66 1010.4
20260905231614 32 69 9.7 25.7 0.00 0.00 0.00 65 1010.3
20260905231119 32 77 12.9 25.7 0.00 0.00 0.00 65 1010.2
20260905230624 32 63 6.4 9.7 0.00 0.00 0.00 66 1010.2
20260905230034 32 54 3.2 8.0 0.00 0.00 0.00 66 1010.2
20260905225539 32 63 4.8 11.3 0.00 0.00 0.00 66 1010.2
20260905224602 32 41 4.8 14.5 0.00 0.00 0.00 67 1010.1
20260905224111 32 63 6.4 16.1 0.00 0.00 0.00 67 1010.1
20260905223131 32 30 8.0 16.1 0.00 0.00 0.00 65 1010.2
20260905222621 32 34 8.0 17.7 0.00 0.00 0.00 64 1010.2
20260905222128 32 41 9.7 17.7 0.00 0.00 0.00 64 1010.2
20260905221553 32 13 9.7 17.7 0.00 0.00 0.00 64 1010.1
20260905221105 32 30 8.0 16.1 0.00 0.00 0.00 63 1010.0
20260905220603 33 14 11.3 19.3 0.00 0.00 0.00 61 1010.0
20260905220034 33 22 8.0 19.3 0.00 0.00 0.00 59 1010.0
20260905215538 34 33 9.7 17.7 0.00 0.00 0.00 55 1010.0
20260905214608 35 142 3.2 12.9 0.00 0.00 0.00 53 1010.2
20260905214112 35 144 8.0 12.9 0.00 0.00 0.00 52 1010.2
20260905213629 35 150 4.8 9.7 0.00 0.00 0.00 53 1010.2
20260905213056 35 86 4.8 14.5 0.00 0.00 0.00 54 1010.2
20260905212539 35 69 6.4 14.5 0.00 0.00 0.00 54 1010.2
20260905212151 35 120 6.4 14.5 0.00 0.00 0.00 54 1010.2
20260905211550 35 94 8.0 14.5 0.00 0.00 0.00 54 1010.2
20260905211101 35 71 6.4 12.9 0.00 0.00 0.00 56 1010.2
20260905210613 35 120 4.8 12.9 0.00 0.00 0.00 55 1010.2
20260905210034 35 98 6.4 24.1 0.00 0.00 0.00 56 1010.3
20260905205546 35 149 11.3 24.1 0.00 0.00 0.00 57 1010.3
20260905204613 34 84 4.8 14.5 0.00 0.00 0.00 57 1010.4
20260905204121 34 69 1.6 14.5 0.00 0.00 0.00 58 1010.4
20260905203100 34 88 4.8 11.3 0.00 0.00 0.00 57 1010.7
20260905202543 34 138 3.2 14.5 0.00 0.00 0.00 58 1010.8
20260905201605 34 148 8.0 14.5 0.00 0.00 0.00 57 1010.9
20260905201118 34 169 6.4 12.9 0.00 0.00 0.00 57 1011.0
20260905200629 33 200 4.8 16.1 0.00 0.00 0.00 58 1011.0
20260905200049 33 137 8.0 17.7 0.00 0.00 0.00 59 1011.2
20260905195604 33 138 1.6 11.3 0.00 0.00 0.00 59 1011.2
20260905195105 33 128 3.2 12.9 0.00 0.00 0.00 59 1011.2